Regional Weather Roundup
Issued by NWS Melbourne, FL

Current Version | Previous Version | Text Only | Print | Product List | Glossary On
Versions: 1 2 3 4 5 6 7 8 9 10 11 12 13 14 15 16 17 18 19 20 21 22 23 24 25 26 27 28
000
ASUS42 KMLB 241611
RWRMLB
HOURLY WEATHER ROUNDUP AROUND FLORIDA
NATIONAL WEATHER SERVICE OFFICE MELBOURNE FL
1200 PM EDT TUE MAY 24 2022

CITY           SKY/WX    TMP DP  RH WIND       PRES   REMARKS
MELBOURNE      FAIR      85  69  58 SE14G23   30.07S
FORT PIERCE    PTSUNNY   84  70  62 SE16G24   30.08S
ORLANDO INTL   FAIR      85  69  58 VRB6      30.07F
DAYTONA BEACH  PTSUNNY   85  71  63 S5        30.08F
VERO BEACH     FAIR      86  70  58 SE17      30.09S
$$
...ELSEWHERE ACROSS CENTRAL FLORIDA...

CITY           SKY/WX    TMP DP  RH WIND       PRES   REMARKS
TITUSVILLE     MOSUNNY   90  70  51 SE15G21   30.09S
SEBASTIAN      FAIR      86  69  58 SE15      30.09S
ORLANDO EXEC   PTSUNNY   87  69  54 S9        30.08F
LEESBURG       FAIR      86  70  58 SE10      30.09S
SANFORD        FAIR      86  69  56 S8        30.08S
DELAND         FAIR      85  68  57 S9        30.09F
NEW SMYRNA BCH MOSUNNY   84  73  70 SE14      30.08S
ORMOND BEACH   PTSUNNY   84  73  70 E6        30.09S
WINTER HAVEN   FAIR      86  68  54 SE7       30.08F
KISSIMMEE      FAIR      84  71  65 S8        30.09F
OKEECHOBEE     FAIR      88  72  58 S12G17    30.05F
TAMPA          FAIR      88  69  53 SE10G17   30.06S
$$
...NORTHERN FLORIDA...

CITY           SKY/WX    TMP DP  RH WIND       PRES   REMARKS
PALM COAST     PTSUNNY   82  72  69 VRB5      30.09S
ST AUGUSTINE   PTSUNNY   85  74  69 SE16      30.10F
OCALA          FAIR      86  69  56 VRB7      30.08S
GAINESVILLE    FAIR      85  69  58 SE10      30.10S
JACKSONVILLE   PTSUNNY   85  69  58 S8        30.08S
TALLAHASSEE    FAIR      86  70  58 VRB5      30.06R
$$
...ALONG THE SOUTHEAST COAST TO THE KEYS...

CITY           SKY/WX    TMP DP  RH WIND       PRES   REMARKS
STUART         MOSUNNY   84  68  58 SE17G24   30.09S
WEST PALM BCH  FAIR      86  68  54 SE17      30.08S
MIAMI          PTSUNNY   85  72  65 E16       30.06S
KEY WEST       PTSUNNY   84  75  74 SE18      30.02S
$$
...MARINE REPORTS...

STATION/POSITION TIME  TEMP    WIND        PRES    WAVE   SWELL
                       AIR SEA DIR/SP/G            HT/PER HT/PER
                 (UTC) (F)     (DEG/KT/KT) (MB)    (FT/S) (FT/S)
ST AUGUSTINE FP  1600   78 78  120/  9/ 10 1019.5F
20NM E CAPE CANA 1550   80 79  140/ 12/ 14 1018.2F   3/ 5   2/ 9
120 E NEW SMYRNA 1550   78 80  150/ 10/ 14 1020.2R   3/ 5   2/ 6
TRIDENT PIER     1530   82 84  170/  9/ 12 1017.9F
4NM E PORT CANAV 1556      79                N/A     2/ 4
6NM NE FPR INLET 1556      76                N/A     3/ 5
SETTLEMENT PT GB 1600   81     120/ 11/ 14 1019.0R
$$



USA.gov is the U.S. government's official web portal to all federal, state and local government web resources and services.